Theta_e
317 317 320 320 323 321 325 332 328 329 329 321 317 320 319 319 320 319 320 318 320 321 320 327 327 325 326 327 336 337 335 344 345 342 343 337 333 338 338 336 336 336 337 337 335 336 335 337 337 336 337 335 335 331 327 324 323 322 320 317 318 325 330 331 332 332 332 332 334 333 333 334 333 331 329 329 329 329 329 330 330 331 331 331 332 333 333 331 330 330 328 328 329 328 328 328 328
320 321 322 321 322 320 326 333 334 330 326 317 315 321 318 316 320 320 324 322 321 324 328 337 336 332 333 330 333 331 328 336 333 333 337 334 336 339 337 337 336 336 337 336 336 335 337 339 338 337 335 335 335 332 328 324 324 323 320 318 317 322 328 330 331 332 332 333 334 333 332 334 335 333 331 329 329 328 328 330 330 331 331 330 332 333 332 331 329 330 330 329 328 328 327 327 328
321 323 323 322 322 323 332 332 329 329 324 318 320 324 318 317 322 323 326 323 321 327 331 332 332 329 332 334 331 328 328 332 331 332 336 336 338 338 338 336 335 337 336 337 336 335 337 338 338 337 335 336 335 333 329 324 324 323 321 319 317 319 324 328 330 332 332 332 332 332 332 334 335 333 331 328 329 328 328 330 330 330 331 330 331 332 332 332 330 330 331 330 329 328 326 326 326
320 324 322 324 326 332 345 337 330 329 322 321 322 323 325 324 323 324 323 322 321 325 325 322 328 323 327 339 332 329 332 334 335 336 338 337 338 338 338 336 336 337 336 337 337 336 337 338 338 337 336 336 336 334 330 326 325 323 321 320 317 317 321 326 330 332 331 330 331 331 333 335 334 332 330 327 328 328 328 329 329 330 330 330 330 330 331 331 330 330 330 328 327 327 325 325 326
321 323 319 324 329 333 338 328 326 325 319 323 321 320 332 332 323 322 320 319 319 320 319 322 332 326 327 336 332 332 333 335 337 336 338 338 338 338 338 336 335 336 337 337 337 338 337 337 338 337 337 337 336 335 332 328 325 324 322 321 319 315 319 326 330 331 331 331 333 333 334 334 333 331 328 325 326 328 327 328 328 329 329 329 330 331 331 331 330 328 327 326 325 326 326 327 327
321 322 320 320 319 321 324 318 319 322 321 325 323 320 331 330 321 323 319 316 318 317 318 323 331 332 334 332 329 330 331 335 338 337 337 337 339 339 338 335 335 336 336 337 337 338 337 337 337 337 336 337 336 335 334 329 326 325 323 322 320 315 317 325 329 332 332 332 333 334 333 332 331 329 327 323 326 328 327 327 328 329 329 329 330 331 331 331 330 329 327 326 326 327 328 328 327
321 322 325 324 320 322 328 325 323 323 318 317 322 323 327 327 321 322 319 317 318 316 318 324 328 331 331 328 330 330 331 336 336 337 337 338 339 339 338 335 335 336 336 336 337 337 337 337 337 337 337 337 336 336 335 330 328 326 324 322 321 316 315 322 329 332 332 331 331 334 333 331 331 330 329 323 325 328 327 327 327 328 329 329 330 331 331 331 330 329 327 327 327 327 327 327 327
321 323 329 333 330 330 332 325 324 324 315 313 319 324 326 325 322 321 320 319 318 318 323 327 326 326 325 327 335 332 331 335 336 338 336 338 340 338 337 334 334 335 336 335 336 337 337 336 337 337 337 337 336 336 336 332 329 326 325 323 321 318 314 318 326 330 331 330 331 333 332 331 331 331 330 325 324 326 327 327 328 328 329 329 329 330 330 330 329 328 328 327 327 326 327 327 327
319 320 326 330 328 330 330 319 317 320 318 318 319 323 324 321 320 320 321 319 317 320 326 326 322 321 323 330 337 332 332 336 336 338 338 339 340 339 336 333 334 335 335 335 336 336 336 337 336 337 337 337 336 336 335 333 331 328 326 324 323 320 315 315 319 327 331 331 330 331 331 331 331 331 330 327 325 326 326 327 328 328 328 328 329 329 329 329 328 328 328 327 327 327 327 327 328
321 321 324 330 329 323 320 316 318 320 318 321 319 322 322 318 319 318 320 317 316 321 323 323 325 324 327 335 337 331 333 335 336 338 338 339 339 339 336 333 333 334 335 336 336 336 337 337 336 337 337 336 336 336 336 334 332 330 327 325 324 322 319 314 315 323 330 331 329 330 330 330 331 330 330 328 326 325 326 327 327 327 327 327 328 328 328 328 328 328 328 327 327 326 327 327 327
327 327 331 333 329 319 318 319 321 325 321 320 320 320 320 317 318 318 318 316 316 320 318 319 330 336 334 338 336 330 331 335 338 339 338 340 339 339 337 334 333 334 335 335 336 337 337 337 337 337 337 337 336 336 335 334 333 331 329 327 325 324 321 317 314 318 326 330 329 328 329 329 330 329 329 328 326 325 326 326 326 327 327 327 327 327 327 328 328 327 327 326 326 326 327 327 327
326 330 343 338 326 320 324 322 320 331 329 322 320 319 318 315 316 318 317 318 318 320 320 318 325 336 337 339 333 326 331 337 337 339 339 339 339 339 338 335 334 334 335 335 336 337 337 337 337 337 337 337 336 336 335 334 334 333 331 328 327 325 323 319 315 315 320 326 329 329 328 329 328 328 328 327 326 325 326 326 325 326 326 326 326 326 327 327 327 326 326 325 326 326 326 326 326
333 334 342 327 321 322 323 321 319 328 329 326 322 315 315 315 317 320 320 320 319 320 318 316 324 332 335 336 331 328 332 337 337 339 340 339 339 339 338 336 335 335 335 335 336 336 337 337 337 337 337 337 336 336 335 335 334 333 332 329 328 326 324 321 317 314 316 321 327 329 328 329 328 327 327 326 325 326 326 326 325 326 325 325 326 326 327 327 326 326 326 326 326 326 325 326 325
336 338 338 321 317 322 322 320 321 322 324 327 320 314 314 315 319 320 320 320 320 321 313 313 323 330 328 327 330 337 336 335 337 339 339 339 339 338 338 337 335 335 336 335 335 336 336 337 337 337 337 337 336 336 335 335 334 333 333 330 328 327 326 323 319 316 315 316 321 324 326 327 327 327 326 325 325 325 326 326 325 325 324 325 326 326 326 326 325 325 325 325 325 325 325 325 324
330 338 340 329 317 318 319 318 323 324 326 326 317 315 316 313 316 319 318 320 319 315 311 312 319 321 323 323 326 337 335 335 338 339 339 340 339 340 339 338 337 336 336 336 335 336 336 336 337 337 336 336 336 336 336 335 334 333 333 332 330 328 327 325 322 319 317 315 316 318 320 321 324 325 324 324 323 322 324 325 325 325 324 325 325 325 325 325 324 324 323 323 323 324 324 323 323
330 339 335 329 318 316 316 316 321 322 325 323 313 313 317 312 313 317 314 316 316 312 316 318 316 319 322 322 322 325 331 337 337 337 339 339 339 340 339 339 338 336 337 337 336 336 335 336 336 336 336 336 336 336 336 335 335 334 333 332 331 329 328 327 325 322 320 317 315 315 315 316 319 321 320 322 321 319 321 323 323 325 324 324 325 324 324 324 323 321 321 322 322 322 322 322 322
329 338 331 323 320 319 317 316 320 322 325 320 312 312 317 315 311 312 309 314 317 316 324 322 317 323 326 325 322 322 332 337 336 337 338 338 339 339 339 339 338 337 338 338 338 336 335 335 335 335 336 336 336 336 336 335 335 334 333 333 332 330 329 328 327 324 322 320 318 316 314 314 314 317 317 320 321 318 319 322 323 324 323 324 324 323 323 324 322 321 320 320 320 320 321 321 321
332 338 329 320 321 324 322 320 319 322 323 317 315 314 316 317 313 312 311 316 318 316 322 321 322 324 324 325 322 324 333 336 336 337 337 337 338 338 339 338 338 338 339 339 339 337 335 334 334 334 335 335 335 336 336 335 335 335 334 333 333 331 330 329 328 326 324 322 320 318 316 314 313 312 314 317 319 319 320 323 323 322 322 323 323 323 323 323 321 320 320 319 319 319 319 320 320
336 333 325 328 329 323 320 321 317 317 317 316 316 314 314 316 315 313 313 318 317 317 318 319 326 327 326 326 323 328 333 335 336 336 336 337 337 338 339 338 338 338 338 340 339 339 337 335 334 333 334 335 335 335 336 336 335 335 334 333 333 332 331 329 329 327 326 324 322 320 318 316 313 311 311 314 317 319 320 322 322 322 321 321 322 322 322 321 320 319 319 318 318 318 319 319 320
328 327 324 333 334 321 317 319 318 316 316 318 316 312 313 314 313 312 316 319 316 319 320 318 325 330 335 329 324 330 332 334 335 335 336 336 337 337 338 338 337 338 339 339 339 340 338 337 335 332 332 333 334 334 335 336 335 335 334 334 333 333 332 330 329 328 327 326 324 322 320 318 316 311 310 313 316 318 319 320 320 320 319 318 320 320 320 320 319 319 318 318 319 318 319 319 320
319 324 326 327 325 318 316 317 318 316 315 318 317 313 313 312 312 313 317 319 317 320 320 321 325 334 340 328 325 331 330 332 333 334 336 335 337 336 337 337 337 338 337 338 339 339 339 339 336 333 331 331 332 333 334 335 335 335 334 334 333 333 333 331 330 329 328 327 325 324 322 320 318 314 309 310 314 317 318 318 317 317 317 316 317 317 317 319 319 318 318 319 319 318 319 319 320
315 317 320 320 318 315 315 316 316 314 313 316 317 314 313 311 312 316 318 319 322 320 318 320 321 333 341 330 326 329 328 331 331 332 334 335 337 336 337 337 336 337 337 338 338 338 338 338 338 335 332 331 332 332 332 333 333 335 334 334 333 333 333 332 331 330 329 328 327 325 324 322 319 317 311 309 311 314 316 316 316 316 315 316 316 316 317 318 318 318 319 319 319 318 318 319 320
318 316 314 317 317 315 314 314 314 312 314 316 317 314 313 313 313 315 317 319 321 317 314 314 313 324 332 328 327 330 330 330 330 332 333 335 336 336 337 336 336 336 337 338 337 337 336 337 338 336 333 331 331 331 331 332 332 334 334 333 333 332 333 333 332 330 330 329 328 327 325 324 322 319 315 310 308 311 312 313 314 315 315 316 316 315 315 317 318 318 319 319 318 318 318 320 320
321 319 314 314 314 314 314 314 313 312 316 316 313 312 313 316 314 311 313 318 317 310 306 305 311 320 325 326 328 330 330 329 330 331 332 334 335 335 336 336 337 336 337 337 337 337 336 336 337 337 336 333 332 332 332 332 331 332 333 333 333 332 331 332 333 331 330 330 329 328 326 325 324 322 319 314 309 308 309 309 310 312 314 315 315 315 314 316 318 318 319 318 317 317 318 320 320
320 319 315 314 313 314 313 313 315 314 314 312 311 314 314 315 311 310 316 318 315 311 311 314 318 324 326 328 330 328 327 329 330 331 332 333 334 335 335 336 337 336 337 337 337 337 336 335 336 337 337 335 333 332 333 332 331 332 332 332 332 332 331 331 332 332 331 330 330 329 327 326 325 324 322 319 313 308 307 307 308 310 313 314 315 315 314 315 317 318 318 317 315 317 318 319 320
317 318 316 315 314 314 313 314 317 316 313 312 313 315 314 312 310 314 319 317 314 316 329 333 329 332 330 329 328 326 327 327 328 329 331 332 333 334 334 335 336 336 336 336 337 337 336 336 336 336 336 336 335 333 333 333 333 332 331 332 332 332 331 330 331 332 332 331 330 329 329 327 326 325 324 322 317 311 308 306 307 308 310 313 313 314 314 315 316 317 317 316 314 316 318 319 320
316 318 317 317 315 314 315 315 316 316 314 313 315 316 314 312 311 317 317 312 311 321 340 336 333 339 331 328 327 325 325 326 328 328 329 330 331 333 333 334 335 335 335 335 336 336 337 337 336 335 335 337 336 334 334 334 334 333 332 332 332 331 331 331 330 330 331 332 331 330 329 328 327 326 325 324 321 315 310 306 306 307 308 311 312 313 313 314 315 316 316 314 313 316 318 319 320
315 318 316 317 317 314 314 315 315 316 313 313 316 315 315 312 313 320 315 310 311 321 340 337 336 336 327 327 327 324 324 325 327 327 327 328 329 331 332 333 334 334 334 334 334 335 336 336 336 335 334 335 336 336 335 334 335 333 333 333 332 331 331 331 330 330 330 330 331 330 329 328 327 326 325 324 323 319 313 308 306 306 307 310 312 312 312 312 312 313 314 313 313 316 318 319 320
314 316 315 316 319 315 313 314 315 315 313 313 315 313 316 315 316 320 313 310 313 318 330 335 334 330 325 327 326 324 323 324 326 326 327 327 329 330 330 332 332 332 332 332 333 333 334 334 335 334 333 335 336 336 336 335 335 334 334 334 334 333 331 332 331 330 329 328 329 330 330 328 328 327 325 324 323 322 318 311 307 306 307 308 311 312 312 311 310 311 311 312 314 316 318 318 319
314 315 317 317 317 314 312 314 314 313 313 313 313 312 318 319 316 314 310 309 314 317 323 327 328 324 321 323 324 325 321 321 324 324 326 327 327 328 329 330 331 331 331 331 332 332 333 333 334 335 333 335 336 336 336 336 336 335 335 334 334 334 334 333 332 332 331 329 328 328 330 329 328 327 326 325 324 323 320 315 310 308 308 308 310 312 311 310 309 309 310 312 314 316 317 318 318
316 312 319 321 314 314 315 314 315 312 311 311 309 311 318 317 313 310 310 311 312 316 321 321 323 321 317 318 321 323 319 319 322 323 325 325 326 327 327 329 329 330 330 330 330 330 331 331 332 334 333 334 334 335 335 337 337 335 335 335 334 334 334 334 333 333 332 332 331 329 330 330 329 328 326 325 325 324 322 319 314 311 310 309 310 310 310 310 308 308 309 311 314 316 316 316 317
322 311 319 321 311 315 318 314 316 315 312 312 309 313 318 316 314 310 309 313 313 315 320 319 320 318 316 316 316 319 316 313 316 320 323 323 325 326 326 327 327 328 329 329 329 329 330 330 330 331 332 334 333 333 333 334 336 336 335 335 335 334 334 334 333 334 333 333 333 332 331 330 330 329 327 325 326 326 323 322 321 317 312 310 310 310 310 310 309 309 309 310 313 315 315 315 315
324 315 319 321 314 317 317 314 315 315 314 314 311 313 318 317 317 314 310 313 314 315 320 320 320 318 315 314 313 314 313 311 310 311 317 321 323 325 325 326 326 326 327 327 328 328 329 329 330 329 329 331 332 333 332 332 333 334 334 333 333 335 334 333 332 333 333 333 333 333 333 332 331 330 329 327 325 326 326 325 325 322 317 312 311 310 309 309 309 309 309 310 312 313 315 314 313
320 318 319 319 317 317 316 315 314 312 314 315 313 314 318 318 318 317 313 313 313 316 321 321 321 320 318 315 313 312 312 313 310 307 310 316 319 322 323 324 324 325 325 325 326 326 326 327 328 329 328 329 329 331 332 333 333 333 334 334 332 333 335 333 332 333 332 332 332 333 333 333 332 331 331 329 326 326 327 327 326 322 317 313 311 309 308 307 308 308 309 310 311 313 314 314 313
318 318 316 316 316 313 316 319 314 312 314 315 316 315 318 320 318 317 313 310 313 316 319 319 320 322 320 317 316 314 312 314 311 306 308 310 312 316 318 320 321 322 322 323 323 324 324 325 325 326 327 328 328 328 329 331 332 333 334 335 334 334 335 335 334 334 332 331 332 333 333 333 332 332 331 330 329 328 327 327 327 324 320 315 312 310 308 307 307 307 309 310 311 311 313 313 313
319 320 321 322 321 317 317 318 313 312 316 317 319 318 319 320 318 318 314 310 312 315 316 317 318 319 319 317 317 315 315 316 310 306 308 308 309 311 312 314 315 317 319 319 320 321 322 323 324 324 324 325 327 327 328 329 331 332 332 333 334 333 333 333 334 334 333 332 332 333 333 332 332 333 331 329 329 330 327 323 322 323 322 316 312 310 308 308 307 307 308 309 310 309 310 311 311
318 320 324 323 321 319 316 315 313 312 315 318 319 320 320 318 317 318 313 309 311 315 317 318 317 317 317 316 316 314 314 313 308 306 308 308 309 310 309 310 310 312 314 316 318 319 319 321 322 323 323 324 326 327 328 329 329 331 331 332 332 332 332 332 331 331 332 334 334 334 334 333 332 332 332 330 329 330 328 323 320 320 319 317 314 312 310 308 307 306 306 307 308 308 308 308 309
317 319 322 320 318 318 314 313 314 312 313 317 317 319 319 318 318 317 313 311 314 318 318 319 320 317 314 314 315 314 311 309 307 307 307 307 309 309 309 309 309 310 311 313 315 316 318 319 321 321 322 324 326 327 327 328 328 329 330 330 331 332 332 332 331 329 330 332 333 334 334 333 332 332 332 331 330 329 327 326 324 321 319 317 314 311 309 308 306 306 306 305 305 307 307 307 307
320 318 320 320 317 317 315 313 313 312 313 318 319 319 319 318 316 315 314 313 315 315 315 316 317 316 314 313 314 312 311 311 310 307 306 307 308 308 309 309 309 310 311 311 312 315 317 318 320 321 322 324 324 326 327 327 328 328 329 329 329 330 331 331 331 330 329 331 332 332 331 330 332 333 333 333 332 330 328 327 327 325 321 317 313 309 307 306 306 305 305 305 304 304 304 305 306
321 321 321 319 317 318 317 314 313 312 311 316 319 317 317 317 316 318 314 310 311 312 313 313 312 313 312 311 311 311 311 311 310 308 306 305 307 307 308 309 309 310 310 310 311 313 315 317 318 320 321 323 324 325 326 327 327 328 328 328 328 329 329 329 330 330 331 332 332 332 331 329 330 331 332 333 332 331 331 329 328 327 323 317 314 311 308 307 307 306 305 305 305 304 301 301 303
318 328 330 323 321 321 317 314 316 315 311 313 315 314 323 327 325 328 320 310 311 312 312 314 313 311 309 310 311 309 310 310 309 310 307 303 304 306 307 308 309 309 310 311 311 312 313 315 317 319 321 322 324 325 325 327 328 327 327 327 327 327 327 328 328 329 331 331 332 332 332 331 330 330 331 332 332 331 331 330 329 329 325 321 318 315 313 311 310 309 307 306 305 305 303 300 301
314 325 330 326 328 325 318 317 320 319 314 311 310 313 331 338 331 329 323 317 316 312 312 317 316 310 308 311 312 309 310 310 309 310 307 303 302 304 306 307 307 308 310 310 311 312 313 314 316 319 320 322 323 324 325 326 327 327 327 327 326 326 326 326 327 328 329 329 330 330 331 332 331 331 331 331 332 331 331 330 329 327 325 323 322 319 316 313 311 309 307 305 305 306 304 300 299
314 317 318 321 329 326 321 320 317 318 313 308 310 314 322 327 323 322 322 322 321 316 317 320 315 311 311 312 311 309 309 310 310 309 307 303 301 302 303 305 307 308 309 310 310 311 312 313 315 317 319 321 322 323 324 325 326 327 327 327 326 326 325 326 327 327 327 328 328 329 329 330 330 330 331 331 331 331 330 330 329 327 325 322 321 319 317 316 314 311 308 306 305 305 303 301 300
315 315 317 323 328 326 326 325 320 320 313 313 320 319 315 318 317 317 317 319 320 318 318 318 314 314 315 313 311 308 307 307 308 312 314 306 300 301 304 306 307 308 309 309 310 311 312 313 314 317 319 320 322 323 324 325 326 326 326 327 326 326 326 326 327 326 327 326 326 327 327 328 328 329 329 330 330 330 330 330 329 329 328 325 322 321 320 319 317 313 308 306 305 303 302 303 303
316 312 317 322 325 327 331 332 327 318 310 318 327 314 311 322 322 319 315 313 317 319 318 317 315 315 316 316 317 316 312 309 306 312 315 306 300 305 308 308 309 310 311 310 310 311 312 313 315 317 319 321 322 323 324 324 325 325 326 326 326 326 326 326 326 326 325 325 325 325 325 326 326 327 327 327 327 328 327 328 328 328 327 324 322 321 320 318 315 313 310 306 304 303 303 303 304
314 309 315 317 320 325 326 327 326 316 313 325 326 312 311 319 325 325 314 311 318 320 319 319 318 317 317 320 324 324 323 319 315 314 308 301 305 309 310 311 311 311 312 311 312 312 313 314 315 317 318 320 322 322 323 324 324 325 325 325 326 326 326 325 325 324 323 323 323 323 323 324 325 325 325 325 324 324 324 325 326 327 326 324 322 321 318 315 312 311 310 308 305 304 302 302 303
311 315 319 317 321 326 325 326 322 313 320 328 319 313 312 311 323 328 314 312 317 317 320 322 321 321 320 323 326 328 331 328 328 326 311 302 308 312 311 312 312 312 313 313 313 313 313 315 315 317 318 319 321 322 322 323 324 324 324 324 325 325 325 324 323 322 322 322 321 322 322 322 322 322 322 322 321 321 322 324 324 324 324 323 322 321 319 317 314 312 310 307 305 304 303 302 302
315 323 323 315 321 325 325 328 320 313 326 325 313 312 311 309 321 324 316 317 315 313 317 322 323 322 321 325 328 329 334 334 335 339 326 311 309 310 311 312 312 313 314 313 314 314 314 315 315 316 317 318 319 320 321 322 322 323 323 323 324 324 324 323 322 322 322 321 321 321 321 320 320 320 319 319 319 319 319 320 322 322 322 321 320 319 319 318 317 315 312 309 306 304 303 303 302
318 319 321 319 321 320 323 330 321 317 324 315 309 312 310 311 317 315 316 317 313 313 315 318 321 319 321 325 324 327 336 341 341 341 339 331 315 306 307 311 312 313 313 313 314 314 314 314 315 315 316 317 318 318 319 320 320 321 321 322 322 322 322 322 322 322 321 321 321 320 320 319 319 318 318 318 317 317 317 317 318 319 320 320 319 318 317 316 315 313 312 310 308 306 305 303 302
314 314 319 321 321 316 319 323 315 315 320 311 308 312 313 315 313 311 315 311 310 315 314 315 316 316 318 320 320 327 336 343 343 339 347 345 315 300 305 310 310 312 312 313 313 313 314 313 314 315 315 315 316 317 318 318 319 319 319 320 321 321 321 321 321 321 320 320 319 319 319 318 318 317 317 316 316 315 315 314 315 315 316 317 318 317 316 315 315 313 311 310 309 308 307 305 304
314 314 315 317 325 324 320 321 319 320 320 313 308 312 322 320 310 311 315 311 313 315 313 312 314 316 316 312 316 327 333 338 340 340 347 332 305 300 307 308 309 311 311 312 313 312 313 313 313 314 313 314 314 315 315 315 316 316 317 318 318 318 319 319 319 319 319 319 318 318 317 316 316 316 315 315 314 314 313 312 312 312 312 312 312 313 313 313 313 313 313 311 310 309 306 305 305
314 312 311 313 322 325 316 313 318 317 315 315 312 315 325 319 310 312 311 311 313 313 313 314 318 322 319 315 318 326 331 334 333 339 349 327 302 302 307 307 309 311 310 312 312 312 313 312 313 313 312 313 313 313 313 313 313 314 315 315 315 316 316 316 317 317 317 317 316 316 316 315 315 314 314 314 313 312 311 311 311 310 310 310 309 309 309 309 310 311 312 311 311 310 307 306 305
314 312 316 317 316 323 318 307 309 310 310 315 314 316 321 314 312 317 314 312 314 313 317 319 322 325 324 322 322 322 325 327 326 332 338 319 302 302 306 307 309 310 310 311 310 310 311 311 311 312 312 312 312 312 312 312 313 312 313 313 314 314 315 315 315 315 315 315 315 315 315 314 314 313 313 312 312 311 311 311 310 310 310 309 308 307 306 308 309 310 311 312 311 311 310 309 308
317 317 319 314 310 317 319 312 316 315 314 318 315 314 318 314 314 320 316 312 314 316 319 320 322 322 322 325 320 315 319 320 319 322 320 307 300 304 307 308 309 311 311 312 311 311 311 310 311 310 310 311 311 311 312 311 312 312 312 312 312 313 313 313 314 314 314 314 314 314 314 313 313 313 312 312 311 311 310 310 310 310 309 308 307 306 305 306 308 309 310 311 312 311 310 310 309
316 320 315 313 316 319 315 312 319 317 313 320 320 313 311 312 317 322 315 313 319 318 316 317 320 320 324 325 316 313 318 321 320 325 326 312 302 306 310 311 313 313 313 314 313 313 313 312 312 311 311 311 310 311 311 311 311 311 312 312 312 313 312 313 313 313 313 313 313 313 313 313 312 312 312 311 310 310 310 309 309 309 308 307 306 305 304 304 305 307 309 310 311 311 310 309 308
310 311 309 315 324 322 316 314 316 316 313 318 322 319 316 314 317 320 312 315 324 322 317 319 319 321 324 320 315 316 321 323 321 325 331 316 305 309 313 313 314 314 314 314 314 314 314 313 314 313 313 312 311 311 311 311 311 311 311 311 312 312 312 312 313 313 313 313 313 313 312 312 312 312 311 310 310 310 309 309 308 308 307 307 306 306 306 306 306 307 308 309 309 310 309 308 308
312 311 310 315 316 314 315 314 314 318 319 319 319 318 322 320 316 316 313 315 322 321 320 320 320 325 326 318 318 320 320 323 322 325 329 315 307 312 314 313 314 314 313 314 313 314 314 314 314 314 313 313 311 311 311 311 311 311 311 311 311 311 312 312 312 312 312 312 312 312 312 312 311 311 310 310 310 309 309 308 307 307 307 307 307 307 308 308 308 308 308 309 308 308 309 308 308
313 313 313 315 314 314 316 314 312 313 315 320 318 313 320 325 318 314 314 314 315 316 317 319 320 324 323 320 323 324 323 327 326 327 326 311 305 310 311 312 313 312 313 313 313 313 313 313 313 312 312 312 311 310 310 310 310 310 310 310 311 311 311 311 311 311 311 311 312 311 311 311 311 310 310 309 309 309 308 308 307 307 307 307 307 307 307 308 308 309 309 309 308 307 308 308 307
Wind_Speed
4 3 2 2 1 2 4 6 2 2 4 2 1 2 2 2 1 2 2 1 1 2 3 2 3 5 3 3 6 6 3 4 6 4 3 4 4 19 18 14 20 21 21 20 19 19 18 18 17 16 15 13 13 12 12 13 15 16 15 16 15 16 16 16 16 16 17 16 14 13 14 16 17 19 21 21 21 21 21 21 21 21 21 21 21 20 21 20 21 21 22 22 22 22 22 22 22
3 4 3 3 4 3 0 3 3 3 5 2 2 2 2 1 1 5 6 5 4 2 3 5 5 5 3 3 5 4 2 1 5 3 1 2 10 18 15 15 21 21 21 20 19 19 17 16 16 16 15 14 13 12 12 13 15 15 15 15 15 16 16 16 16 16 16 15 13 13 15 16 18 20 20 21 21 20 20 21 21 21 21 21 21 21 20 21 21 21 21 21 21 20 20 21 21
4 4 3 3 5 5 2 4 2 1 4 2 4 3 1 2 5 6 7 7 5 4 4 4 3 3 3 3 2 2 0 1 3 1 1 8 10 15 15 15 20 20 20 20 19 18 17 16 16 16 14 14 13 12 12 14 14 15 15 14 14 15 16 16 16 15 15 15 12 12 15 16 16 18 19 20 21 20 20 20 20 20 20 20 20 20 20 20 20 20 19 19 19 20 20 20 21
5 4 2 2 3 4 4 4 2 4 3 3 3 4 2 5 7 6 6 6 5 4 3 1 1 0 1 2 1 1 1 0 3 2 3 9 10 16 17 17 20 19 20 20 19 18 16 15 15 15 14 13 12 12 12 14 13 14 14 14 14 14 15 17 16 15 15 15 12 12 15 15 15 16 17 18 20 20 19 19 20 20 19 19 19 19 19 19 19 19 18 18 18 18 20 21 21
5 5 4 3 3 2 3 3 3 4 3 4 2 4 5 6 7 5 4 4 5 1 0 1 2 1 1 2 1 1 2 1 4 3 5 10 12 18 17 18 20 19 20 19 19 18 16 15 15 15 14 13 12 12 12 13 13 13 13 13 13 13 15 16 16 15 15 15 13 14 15 14 14 15 15 18 20 20 19 19 19 19 19 19 19 18 18 18 18 18 18 19 19 20 21 21 21
5 6 8 7 4 1 3 2 2 2 5 5 3 5 5 6 6 6 2 1 3 1 3 1 1 2 1 1 0 2 2 2 5 4 8 12 13 18 17 19 20 18 20 18 19 17 16 15 14 14 13 12 12 12 12 13 12 13 13 13 13 13 14 15 16 15 13 13 13 14 15 15 14 13 15 18 20 20 19 19 18 18 19 19 19 18 18 18 18 18 18 19 20 20 19 19 20
3 3 6 7 3 2 3 2 4 2 2 4 3 4 5 6 5 6 4 1 1 1 2 1 2 4 1 1 0 2 0 3 6 4 10 12 14 18 17 20 19 18 19 18 18 16 16 16 14 14 13 12 12 12 12 12 12 12 13 12 12 12 13 15 16 15 13 14 13 13 14 14 13 15 17 18 20 20 18 18 18 18 18 18 19 18 17 17 17 17 17 18 18 18 18 19 20
4 1 1 4 2 4 4 2 3 2 1 2 3 4 6 7 6 7 5 2 1 1 0 1 1 4 1 1 2 2 2 4 5 5 12 13 16 18 17 20 19 18 18 17 17 16 16 15 14 13 13 12 11 11 10 11 11 11 12 11 12 12 12 13 15 15 14 14 14 12 13 13 13 15 18 18 19 19 18 18 17 18 18 18 18 17 17 17 16 16 17 17 17 17 18 18 18
5 3 0 3 2 3 3 2 1 2 2 4 3 4 3 5 5 6 5 1 1 2 1 3 1 1 1 2 0 3 2 4 5 8 13 13 18 18 18 20 18 19 17 17 16 16 15 14 14 12 12 12 11 10 10 10 10 10 11 10 11 11 11 12 14 16 15 14 14 13 12 13 13 13 15 16 18 18 17 17 17 17 17 17 17 17 17 17 16 17 17 17 16 16 16 16 16
5 4 1 3 2 3 3 1 1 1 3 4 4 4 3 5 4 4 4 1 1 3 2 2 2 1 2 2 1 1 2 4 7 12 13 14 18 18 19 19 18 18 17 16 15 15 15 14 14 13 12 12 11 10 10 10 10 10 10 10 10 10 10 11 13 15 15 14 14 13 12 13 12 12 13 15 17 18 17 16 16 16 16 16 16 16 16 17 16 16 16 15 15 15 15 15 16
4 4 3 4 3 2 2 3 3 3 4 4 2 3 4 5 4 3 2 2 0 2 2 0 2 3 3 1 2 0 1 5 11 15 13 15 18 17 18 18 18 17 16 16 15 15 15 14 15 14 12 12 12 11 10 10 9 10 10 9 9 10 9 10 11 13 15 14 14 14 12 12 12 11 12 12 15 17 17 16 16 15 15 16 16 16 16 16 15 15 15 15 15 15 16 17 17
2 3 4 4 2 2 3 3 3 5 6 4 0 3 4 5 4 3 3 4 1 1 3 2 3 4 4 3 3 2 1 8 13 14 15 17 17 17 17 18 18 17 15 15 15 16 16 16 15 15 13 13 13 12 11 11 10 10 10 9 9 9 9 9 10 11 13 13 13 13 13 12 10 10 10 11 14 17 17 16 16 15 15 15 15 15 15 15 15 15 15 15 16 17 17 18 18
3 1 5 2 2 2 3 4 2 3 5 3 3 1 5 5 3 6 6 4 3 4 4 5 4 4 3 3 3 4 3 11 14 16 17 18 17 16 16 17 18 17 16 15 15 16 17 17 16 15 14 14 13 13 12 11 11 10 10 10 9 9 9 9 9 10 11 12 13 13 14 13 11 11 11 11 14 17 17 16 16 15 14 15 15 15 15 15 15 15 15 16 17 17 18 18 18
3 3 5 2 1 2 4 3 0 2 3 5 2 2 4 2 4 6 7 5 4 5 2 3 6 4 2 2 3 4 5 12 16 18 18 18 17 16 16 16 17 18 16 16 16 17 18 17 17 16 15 15 14 13 13 12 12 10 10 9 9 9 9 9 9 9 9 10 12 13 14 14 13 12 11 11 14 16 17 17 16 15 14 14 15 15 15 14 15 15 15 16 16 16 16 16 16
4 3 4 4 2 1 3 2 2 5 4 5 3 5 4 1 3 5 6 6 5 4 0 1 3 2 3 3 3 5 9 16 19 20 19 19 17 16 15 15 17 18 17 17 17 17 18 18 18 17 16 16 15 14 14 13 12 11 10 10 9 8 8 9 8 8 8 9 9 10 11 12 12 11 11 12 13 16 18 17 16 14 13 14 14 14 14 14 14 15 15 15 15 15 14 14 14
3 4 5 3 2 1 3 2 3 3 5 5 2 4 5 3 3 4 5 4 3 1 2 2 1 0 3 5 2 4 12 19 20 20 19 19 18 17 17 16 17 17 18 18 18 18 18 19 18 18 18 17 16 16 15 14 13 12 11 10 9 9 8 8 8 8 8 8 8 8 9 9 10 10 11 11 12 15 17 16 17 15 13 14 14 14 14 13 14 14 14 14 13 14 13 13 13
3 4 4 2 3 3 4 4 4 4 5 5 2 4 8 3 1 2 2 4 5 1 2 2 1 1 3 4 4 2 16 21 21 21 19 19 19 18 17 17 18 18 19 19 19 19 19 19 19 19 19 18 17 17 16 15 14 13 12 11 10 10 9 9 8 8 8 8 8 8 8 8 9 9 10 11 12 15 17 16 17 15 13 14 14 13 13 13 13 13 13 12 12 12 12 12 12
4 4 3 2 4 4 6 8 7 5 3 6 5 6 8 4 3 2 1 5 4 1 3 3 2 2 3 6 5 7 21 23 23 23 20 19 19 19 18 19 19 19 20 20 20 19 20 20 20 20 20 19 19 18 17 16 16 15 14 13 12 11 10 10 9 9 9 8 8 8 8 8 8 9 9 10 12 14 17 17 16 15 13 15 14 13 13 12 12 12 12 12 11 11 11 12 12
4 3 3 3 6 5 5 8 7 2 2 6 4 4 5 5 5 3 2 1 2 1 3 4 4 5 3 4 3 16 23 23 24 23 21 20 20 20 20 20 21 21 22 22 22 21 20 21 20 21 20 21 20 19 19 18 18 16 15 14 14 13 12 11 10 10 9 9 9 8 8 9 8 9 10 11 12 14 17 17 16 15 14 15 15 13 13 12 12 13 12 12 11 11 11 12 12
3 4 2 5 6 4 4 6 7 4 3 7 5 3 2 3 3 2 4 2 1 5 5 1 4 8 3 2 9 19 21 21 23 22 21 20 20 21 21 22 23 24 24 23 23 22 21 22 21 21 21 21 21 20 20 20 19 18 17 16 16 16 14 13 12 11 11 10 9 9 9 9 9 9 11 11 12 14 16 16 16 16 14 15 16 15 14 13 13 13 13 12 11 10 10 12 13
2 4 3 5 3 1 2 5 6 4 5 7 6 4 1 3 2 2 6 5 3 7 8 8 9 9 6 4 9 17 18 19 19 20 20 20 20 21 22 23 24 24 24 23 23 23 23 22 23 22 22 22 22 21 22 21 21 20 19 18 18 17 16 15 14 13 12 11 11 10 10 10 10 10 12 13 13 14 16 16 16 16 15 15 16 15 14 14 14 14 13 12 11 9 9 11 12
2 1 4 4 2 2 1 3 3 3 4 6 7 6 4 2 1 3 9 7 6 7 7 10 10 9 10 9 12 14 15 16 17 19 20 21 21 22 22 22 22 22 23 24 25 26 24 24 24 24 23 23 23 22 22 22 22 22 21 20 20 19 18 17 16 15 14 13 13 12 12 11 11 11 12 13 14 14 15 16 16 17 16 15 16 14 14 14 14 14 13 12 11 9 9 11 13
2 1 1 3 3 1 1 2 2 3 6 7 7 5 4 4 1 2 7 8 7 5 4 6 6 8 11 12 14 13 12 14 17 22 24 24 25 26 25 23 23 23 23 25 26 27 26 26 25 25 25 25 24 24 23 23 23 23 23 22 22 21 20 19 18 17 16 15 15 14 13 13 13 13 13 14 14 15 15 16 16 17 16 15 16 15 15 15 15 14 13 12 11 11 11 13 14
4 1 1 1 2 1 2 2 1 3 6 6 5 4 4 5 3 2 5 11 7 3 3 2 7 11 12 11 12 13 15 18 21 25 27 27 28 28 26 23 23 23 23 25 26 28 28 28 27 26 27 27 26 25 25 24 24 24 24 23 23 23 22 21 21 19 18 17 16 16 15 14 14 14 14 14 15 15 16 16 16 17 17 16 16 16 16 16 15 14 13 12 12 12 12 14 15
4 3 2 2 0 3 3 2 3 3 3 1 4 5 2 5 4 2 7 11 7 3 2 4 7 10 10 10 11 12 13 17 19 22 23 24 24 23 23 23 22 23 25 26 26 28 30 30 29 28 28 29 28 27 26 26 25 25 25 24 25 25 24 22 22 21 20 19 19 18 17 16 16 16 15 15 16 16 17 17 17 17 18 17 16 16 16 15 16 15 14 13 12 12 13 15 16
2 4 2 3 1 5 3 3 5 3 1 2 5 2 3 2 1 3 8 8 5 1 6 5 7 8 8 9 11 11 11 15 19 20 21 21 20 21 24 25 24 26 28 28 27 28 28 29 30 30 29 29 29 28 27 27 27 27 26 26 26 26 25 24 24 23 22 21 21 20 19 18 18 17 17 16 17 17 18 18 18 18 18 18 17 16 16 15 15 15 14 13 13 13 14 16 18
3 6 5 5 2 4 3 3 5 3 1 2 5 2 3 1 1 4 5 4 3 3 6 4 7 8 9 8 9 12 12 16 19 18 17 18 20 24 26 27 29 30 29 29 30 29 28 29 30 31 31 30 30 29 29 29 28 28 27 27 27 27 26 26 25 24 24 24 23 22 21 20 19 18 18 18 18 18 19 19 19 19 19 19 18 17 17 16 15 15 15 14 13 14 15 17 18
4 6 5 7 5 3 5 4 4 3 2 2 5 3 4 2 1 6 5 6 2 5 4 4 6 6 7 7 7 9 12 15 16 15 18 22 26 29 30 32 33 32 32 33 31 28 28 29 30 30 31 31 31 30 30 29 29 29 28 29 29 28 26 27 27 26 26 25 24 24 23 22 21 20 19 19 19 18 19 19 19 19 19 19 19 18 17 17 16 15 15 14 14 15 16 18 20
3 4 4 6 8 4 5 2 4 2 2 3 2 1 5 3 5 8 5 5 3 4 3 4 5 5 5 6 5 6 10 11 13 18 24 27 30 30 33 36 34 32 34 33 29 28 29 29 29 29 29 31 32 31 31 30 30 29 29 30 30 29 28 27 28 27 27 26 26 25 24 24 23 22 22 20 19 19 19 20 20 20 20 20 20 19 19 18 17 17 16 16 16 17 18 20 22
2 3 5 2 6 4 4 3 3 1 1 5 1 1 7 7 9 7 4 5 4 1 5 5 5 5 4 5 5 6 8 11 16 23 27 27 28 28 32 34 32 32 33 30 29 31 31 30 29 29 30 31 32 32 31 31 32 31 30 30 31 29 29 29 29 29 28 27 26 26 25 25 25 24 23 22 20 20 21 21 21 20 20 21 21 21 20 20 19 19 18 18 19 19 20 22 23
2 3 3 2 1 4 6 4 2 3 0 5 5 2 6 8 8 7 6 3 2 4 7 6 6 5 5 5 5 7 8 13 19 23 25 26 27 28 31 32 31 33 32 31 33 33 31 31 30 30 31 32 33 33 32 31 31 32 31 31 33 32 30 30 30 29 30 28 27 26 26 26 26 26 25 23 22 22 22 22 22 22 22 23 23 23 22 21 20 20 20 21 21 22 22 23 24
4 2 2 3 3 5 7 3 1 3 1 5 6 2 6 7 8 7 6 3 4 6 7 6 7 6 6 5 6 6 8 13 20 24 26 28 29 30 32 33 32 34 34 35 34 33 33 33 32 32 32 33 34 34 34 32 30 30 30 29 31 34 32 30 30 30 30 31 30 28 27 26 27 28 27 26 24 24 24 23 22 23 24 25 26 26 25 24 23 23 23 23 23 24 24 24 25
4 3 2 2 3 3 4 1 3 1 0 4 3 3 4 3 6 7 5 5 4 4 7 7 7 7 6 5 6 6 7 10 14 22 29 31 32 33 34 35 35 35 35 35 34 34 35 35 34 35 35 35 35 34 35 35 34 32 32 31 30 31 32 32 32 31 29 30 31 31 29 28 27 27 28 29 29 27 25 24 24 25 27 28 28 28 28 28 27 27 26 26 25 25 26 26 25
2 3 2 3 3 3 2 2 4 4 2 1 2 2 6 6 7 8 5 3 3 4 7 8 7 6 6 6 6 6 7 8 10 19 28 31 33 35 35 36 35 35 35 35 35 35 35 35 35 36 37 37 36 36 35 35 35 33 32 33 32 31 33 35 36 34 32 29 29 31 31 32 31 30 28 28 30 30 28 27 29 30 30 31 31 31 30 29 29 28 28 28 27 27 28 28 27
5 3 2 2 2 3 3 3 2 4 3 2 1 3 9 10 9 9 6 1 2 6 7 7 8 7 7 6 6 7 7 9 14 20 23 24 28 31 33 34 34 34 34 34 34 33 34 34 34 35 36 36 36 36 36 35 35 34 32 30 31 32 32 33 33 34 36 32 28 30 32 33 33 32 32 29 29 32 32 33 33 33 32 32 33 32 31 31 29 29 28 28 29 28 28 29 29
9 6 5 5 3 4 5 4 4 1 3 3 4 4 8 10 10 10 6 2 3 7 6 6 8 7 8 7 7 7 8 11 15 18 18 19 23 25 26 28 30 31 32 31 31 32 33 33 34 35 36 36 35 34 34 35 34 35 35 33 33 35 34 32 30 30 33 34 32 30 30 32 33 33 35 34 31 31 35 36 35 34 33 34 35 35 35 34 32 31 29 29 30 28 27 28 29
8 6 5 4 3 2 4 3 5 1 3 3 3 3 8 10 11 12 7 1 3 8 8 8 8 7 8 8 8 9 10 11 12 13 14 16 20 21 22 23 24 26 28 29 31 32 33 34 34 35 35 35 34 34 33 34 35 34 34 35 36 36 36 35 33 31 31 32 33 30 28 32 33 31 32 34 33 33 36 35 33 33 33 34 37 38 38 36 34 32 30 29 30 30 30 30 30
6 6 5 2 2 2 3 2 4 3 1 3 2 3 9 10 10 11 8 4 6 9 9 9 10 9 8 8 10 11 9 9 9 10 12 13 16 18 19 20 21 23 26 29 31 33 33 33 34 35 34 34 34 35 34 34 36 36 35 36 36 35 35 36 35 34 33 32 32 29 29 30 30 29 28 30 33 35 36 35 34 34 34 35 37 37 36 35 34 33 32 30 29 30 31 32 34
5 4 6 3 2 2 3 3 5 5 0 3 4 5 9 10 10 11 10 8 8 8 8 9 9 9 9 8 10 10 9 10 8 7 10 13 16 16 17 19 21 23 25 27 29 30 31 32 34 34 33 34 34 35 35 35 35 35 35 34 34 34 34 35 34 33 33 34 35 34 32 31 31 30 28 28 31 33 34 35 35 35 36 37 36 36 35 35 36 35 35 34 31 29 28 32 38
4 4 5 3 2 1 1 2 4 4 2 1 2 4 8 8 7 9 9 6 6 6 7 8 8 10 11 9 7 8 10 12 9 7 8 12 15 15 17 19 21 23 24 25 26 28 30 32 33 34 34 34 33 33 34 34 33 32 32 31 30 30 30 31 31 32 33 33 34 35 34 32 33 33 31 30 32 33 34 35 34 34 37 37 37 37 37 37 38 37 38 38 35 32 29 31 37
1 3 6 4 3 4 3 1 2 3 4 3 3 4 6 5 5 8 6 4 5 5 5 8 9 9 9 9 8 9 10 10 10 10 8 9 12 14 15 16 18 21 24 25 25 26 28 30 32 32 32 32 32 32 32 32 31 30 29 28 25 24 25 26 27 31 33 33 33 33 32 32 32 33 33 33 33 34 36 38 37 37 38 37 37 38 38 39 39 40 41 42 41 38 33 32 35
1 3 6 6 7 6 2 2 4 4 4 4 5 3 5 5 5 7 5 7 7 5 6 9 9 6 6 8 10 8 8 9 9 10 9 7 11 13 13 14 16 20 22 23 23 24 25 26 28 28 29 30 30 30 29 30 31 30 29 28 26 24 23 25 28 32 34 35 36 35 34 34 33 33 33 33 33 34 35 35 36 37 38 38 39 39 40 40 39 40 42 43 43 40 35 30 34
2 4 5 6 7 8 6 5 4 1 1 2 3 2 4 7 5 8 6 8 10 8 6 10 8 7 6 7 8 7 7 8 7 8 8 8 10 12 14 14 15 18 18 18 20 21 22 23 24 25 26 27 28 27 28 29 30 31 31 31 30 29 28 29 31 33 33 34 35 35 35 35 35 34 34 33 33 34 33 31 31 32 33 36 37 39 40 40 40 42 43 44 44 41 37 33 35
3 3 6 8 8 8 7 6 4 2 3 4 4 4 2 5 6 7 5 7 11 10 9 9 7 7 8 7 8 7 7 7 6 7 7 8 10 11 12 10 9 11 12 13 16 17 18 20 21 22 23 24 25 25 26 27 29 30 31 32 32 32 31 31 31 31 31 30 30 31 32 32 33 33 34 33 33 34 34 32 31 30 32 36 39 40 41 41 42 43 43 44 44 42 40 38 36
3 2 6 7 7 7 5 6 4 0 1 4 5 2 1 6 7 5 5 4 9 10 10 9 8 8 8 7 8 7 7 6 6 7 7 8 10 10 9 6 4 4 5 7 10 11 13 15 17 19 19 21 22 23 24 25 27 29 30 31 31 32 31 30 29 27 27 27 28 29 29 30 32 32 33 34 34 34 33 33 34 34 34 34 37 40 41 41 42 43 43 44 44 44 44 42 37
3 5 8 7 7 6 5 5 4 2 2 4 5 2 0 5 7 4 2 2 7 8 8 7 7 7 7 7 7 7 6 5 4 6 7 8 8 8 6 4 3 1 1 3 5 6 8 10 13 15 16 18 19 20 22 23 25 27 29 30 31 31 30 29 28 26 26 26 26 27 28 29 30 31 32 32 33 33 32 33 33 34 34 33 34 36 38 39 39 41 43 44 45 45 44 42 39
7 6 7 7 6 6 4 3 4 4 2 6 6 3 0 3 6 4 3 4 5 4 5 7 6 7 7 6 6 6 6 5 5 5 5 5 4 5 5 4 3 2 1 1 2 4 5 7 9 12 13 15 16 18 19 21 23 25 27 29 30 31 30 29 28 27 26 26 27 27 28 28 28 29 29 30 31 31 31 33 33 32 32 33 34 34 36 38 39 40 41 42 44 46 45 43 40
6 4 5 5 4 5 4 5 4 2 4 6 4 3 1 3 6 4 4 6 6 4 5 6 6 8 8 7 7 7 6 5 5 5 5 5 5 5 6 6 4 3 2 2 1 2 4 5 7 9 11 13 14 16 17 19 21 23 26 27 29 29 30 30 29 29 29 29 29 28 28 28 28 28 28 28 29 30 31 33 35 34 32 30 29 31 34 37 39 40 41 42 43 45 46 43 42
5 5 6 5 2 3 3 3 1 2 5 4 2 1 2 5 8 8 10 10 6 7 7 7 7 8 9 8 8 7 6 5 5 5 5 5 3 4 6 5 5 4 3 2 2 2 3 5 7 8 10 11 13 14 16 18 20 22 24 25 27 28 29 30 30 30 30 29 30 29 29 29 29 29 29 29 29 29 30 31 33 35 35 33 30 28 29 32 36 38 40 43 45 46 46 44 44
4 5 5 4 3 2 2 4 2 3 4 3 3 2 2 5 5 9 14 11 5 6 7 7 7 8 9 9 8 8 7 6 5 5 5 5 3 3 4 4 4 4 3 2 1 1 2 4 6 7 8 10 12 13 15 17 19 20 21 23 25 26 27 29 29 29 29 29 29 29 29 29 29 29 29 29 28 27 28 29 30 32 34 36 35 32 29 28 31 35 38 41 43 45 46 46 46
2 3 5 5 5 4 4 4 3 4 3 3 3 1 3 3 2 6 10 8 5 5 6 5 7 9 8 7 7 8 8 6 5 5 6 6 5 5 6 5 5 5 4 3 2 2 2 3 5 6 7 9 11 12 14 16 18 19 20 22 23 24 26 27 28 28 28 29 29 29 29 29 29 29 28 27 26 26 26 26 27 28 29 30 32 33 33 30 28 32 36 39 42 43 43 43 46
1 2 5 3 4 5 3 3 5 3 1 2 2 3 5 4 6 8 5 6 7 5 5 4 6 8 6 4 5 6 7 5 5 6 6 7 7 7 7 7 6 5 4 4 3 3 3 4 6 7 8 9 11 12 13 15 16 17 19 20 22 23 24 26 27 27 27 27 28 28 29 28 28 28 27 26 25 25 25 25 25 25 25 25 26 27 30 32 31 31 34 37 40 41 40 41 43
2 2 3 4 4 8 5 1 0 3 1 3 1 4 6 4 7 9 5 6 8 5 5 5 6 7 5 4 4 5 6 5 5 6 6 8 9 9 8 7 6 6 6 5 4 4 4 4 6 8 9 11 11 12 13 14 15 17 18 19 21 22 24 25 25 25 25 25 26 27 28 28 28 28 27 26 25 25 25 24 25 24 24 24 24 24 26 29 30 31 34 37 39 40 40 42 44
5 3 5 4 3 5 4 1 3 4 2 4 1 4 5 2 4 7 7 5 9 7 6 6 6 6 5 5 5 6 7 5 5 5 5 6 8 9 8 7 7 8 9 8 8 8 8 8 9 10 11 13 13 12 12 13 15 17 17 18 20 21 22 23 24 23 23 24 26 27 27 28 28 27 27 26 25 25 25 24 24 24 23 23 23 25 27 29 29 30 32 36 39 40 40 42 43
4 4 3 4 3 2 2 2 1 1 2 4 4 4 4 4 5 5 3 3 8 8 7 5 6 6 5 5 6 7 7 5 5 5 5 5 6 7 9 10 11 10 11 11 11 11 11 11 12 13 15 16 15 14 13 13 15 16 17 17 18 20 21 22 23 23 23 25 26 26 27 28 27 27 27 26 25 25 24 24 24 24 23 23 23 24 24 26 28 29 30 32 35 37 38 39 40
3 2 3 3 3 4 2 3 3 3 3 3 4 4 3 6 6 5 7 7 7 7 7 6 7 7 5 5 5 6 5 4 4 5 5 5 6 9 11 12 11 10 10 10 10 10 10 11 12 14 16 17 18 18 16 15 16 16 17 18 19 20 21 22 22 23 24 26 26 26 27 27 27 27 26 26 26 25 25 24 24 24 23 23 22 22 22 23 26 30 31 30 31 33 35 37 38
3 3 3 2 2 2 2 0 2 4 4 2 2 4 5 6 4 7 10 9 8 7 6 7 7 6 6 5 4 3 2 3 4 4 5 5 8 11 11 11 10 10 10 9 9 9 8 9 11 12 15 17 19 19 18 17 16 17 18 19 20 20 21 22 23 23 25 26 26 26 27 26 26 27 26 26 26 25 25 25 24 24 24 24 23 23 23 23 25 29 32 32 32 32 34 36 37
6 5 6 6 4 4 3 2 1 2 3 4 3 4 7 6 4 7 8 6 7 6 5 6 5 5 6 5 3 2 1 3 4 4 4 5 7 8 9 9 9 9 8 8 7 7 8 9 11 13 16 18 19 19 18 17 16 17 18 18 19 20 22 23 23 24 26 26 26 26 26 26 27 27 26 26 26 26 25 25 25 25 25 25 24 24 24 24 25 27 29 31 32 33 34 35 36
Wind_Direction
7 41 69 77 38 103 35 50 95 327 73 75 278 149 235 213 170 162 139 220 164 249 214 113 130 142 121 153 173 175 144 156 164 132 196 260 140 157 157 147 153 154 151 148 146 146 149 149 146 144 141 136 129 121 116 111 103 99 96 93 93 97 98 98 98 97 96 94 97 100 100 102 95 91 89 89 93 95 94 92 89 87 86 84 83 85 87 85 83 81 80 81 80 80 79 79 80
31 48 58 91 37 62 262 59 99 335 57 93 250 166 252 329 141 182 177 203 204 203 153 110 105 96 59 82 124 122 52 334 169 163 240 142 139 157 156 152 158 157 154 151 149 150 153 152 147 145 144 140 132 127 121 111 105 101 98 94 93 95 99 101 101 100 97 96 97 96 97 98 96 95 91 91 95 97 96 94 91 88 87 87 86 86 87 87 85 83 83 83 81 81 81 82 84
43 54 61 110 41 49 82 41 92 63 82 153 252 244 242 140 198 202 201 218 197 143 105 112 95 77 36 32 65 90 89 329 164 191 84 144 150 160 158 158 162 161 158 153 152 154 156 153 149 148 147 143 135 133 123 112 109 103 100 94 93 94 98 103 103 101 97 98 98 92 95 97 96 96 91 93 98 100 99 95 91 89 89 88 88 87 87 87 86 84 83 83 82 82 85 87 89
56 64 37 120 55 36 63 41 126 119 125 190 249 257 209 181 204 214 228 229 176 106 56 119 64 50 45 66 89 72 147 309 170 183 143 163 165 162 159 160 166 165 162 158 157 160 159 156 151 151 150 146 141 137 124 114 112 105 102 96 94 95 101 106 104 100 98 101 100 94 99 101 97 95 91 94 101 102 101 96 93 91 90 89 90 90 89 88 86 84 82 82 83 85 88 90 90
76 72 41 97 90 50 92 72 107 112 185 185 174 252 232 200 193 200 234 229 192 139 273 132 72 260 41 108 147 126 201 153 168 189 162 175 170 160 159 163 169 168 167 164 162 164 162 160 155 156 155 151 147 140 127 118 116 110 106 100 97 99 105 108 105 102 101 105 107 103 102 100 96 95 93 98 106 105 103 100 96 93 91 91 91 91 91 89 86 86 83 83 88 91 91 90 90
102 87 55 74 88 113 123 109 142 170 214 168 150 238 229 203 191 175 160 255 234 222 190 167 159 182 58 6 255 166 196 122 156 191 174 176 169 160 161 165 171 171 169 168 167 167 166 164 160 160 159 155 152 145 133 123 119 114 110 105 102 104 110 112 110 107 103 106 107 103 101 97 97 97 95 101 108 107 105 102 98 95 94 93 92 91 90 89 87 86 85 87 92 94 93 94 96
123 118 43 70 68 31 108 151 189 198 203 165 167 208 197 195 189 150 138 202 263 10 161 193 153 126 92 317 13 197 296 135 151 184 180 171 167 163 162 166 172 173 170 170 170 171 170 168 164 164 162 162 160 148 135 126 121 117 114 109 106 105 112 116 115 111 105 107 107 102 101 98 99 102 98 102 108 108 108 105 101 97 96 96 95 93 92 90 89 87 88 92 95 97 99 101 103
83 144 8 89 60 25 90 125 197 190 170 233 235 211 189 178 169 145 159 186 186 284 80 212 82 92 179 57 129 241 6 156 159 171 179 168 166 165 164 169 173 174 171 171 173 175 174 171 170 168 165 168 165 149 138 131 125 121 117 112 109 106 111 118 120 116 107 108 111 107 106 104 104 106 103 104 107 109 110 108 104 99 98 98 98 97 95 93 93 93 92 95 97 100 102 104 107
52 45 61 84 86 38 51 51 214 226 269 279 271 232 180 157 152 138 158 228 237 184 174 215 192 75 204 69 211 271 21 167 169 164 176 172 169 165 166 172 175 174 171 174 176 179 179 175 175 175 170 171 167 154 147 140 133 128 122 117 112 108 110 117 124 120 111 111 112 111 110 109 107 107 107 107 109 112 113 111 105 101 101 100 101 100 98 98 97 96 95 97 99 102 103 104 106
38 26 121 74 88 55 12 303 246 254 263 271 261 229 166 149 141 122 144 176 241 144 187 226 77 76 151 121 257 299 54 175 164 163 178 178 172 168 170 174 178 175 172 176 178 183 184 181 180 180 175 172 172 164 158 150 142 137 128 124 118 112 111 115 126 124 118 116 116 115 113 110 109 110 111 110 112 116 116 114 109 106 106 105 105 104 103 101 99 99 98 101 103 105 103 103 106
35 357 96 74 72 96 202 209 277 279 284 302 288 240 181 149 122 94 98 133 271 120 171 150 96 135 97 341 251 283 99 176 168 167 176 177 174 172 172 176 181 179 175 177 179 185 187 183 183 184 181 177 177 173 169 162 153 146 137 133 127 120 116 116 126 130 127 124 122 121 119 116 117 119 116 114 116 120 121 119 116 112 110 109 108 108 107 105 102 102 102 104 105 105 105 108 113
79 340 65 84 132 185 201 167 283 296 316 330 241 264 167 132 122 168 155 148 164 137 205 203 169 140 82 321 259 303 218 174 173 171 171 171 173 173 175 180 183 183 181 180 181 186 187 184 184 187 185 182 183 180 177 171 165 158 148 144 138 131 124 122 126 134 137 132 128 126 125 122 123 124 120 120 122 125 126 124 122 118 113 112 111 111 110 108 107 107 107 107 107 111 114 116 117
115 127 90 101 158 156 161 142 283 330 333 281 205 244 136 131 196 196 159 137 136 145 240 216 165 111 105 259 283 316 227 177 173 171 170 169 171 174 179 183 185 187 186 186 185 187 189 185 185 188 188 187 189 187 182 178 174 168 159 153 147 141 133 131 131 135 142 138 135 133 134 134 132 130 128 128 127 130 129 128 127 121 116 115 114 114 113 113 114 114 112 112 115 119 121 120 119
132 145 113 117 77 113 149 133 206 142 261 259 211 166 148 158 209 184 143 139 186 179 257 195 155 118 135 250 305 298 201 176 170 171 172 170 174 177 182 186 188 191 191 193 190 189 191 189 187 190 190 189 193 192 186 184 181 177 169 162 155 151 144 139 137 138 143 145 143 141 144 146 144 138 136 136 134 135 134 134 130 124 121 119 119 119 120 122 122 119 118 121 125 127 127 127 124
132 131 92 103 58 69 166 146 131 144 233 234 165 153 164 236 147 158 164 157 210 221 84 138 156 173 178 157 258 251 181 171 168 170 173 174 179 183 187 188 190 195 195 198 196 195 195 194 192 191 193 192 196 195 191 190 187 185 178 171 165 161 155 149 146 143 143 146 147 148 149 152 153 147 144 143 142 142 142 141 133 128 126 125 127 128 128 129 126 126 129 130 130 131 131 132 130
117 113 72 89 126 178 176 150 110 123 250 221 154 130 152 254 134 158 226 151 159 299 37 198 185 100 175 156 231 242 170 168 167 168 172 175 181 186 192 193 194 198 199 201 202 201 199 199 197 195 196 195 198 198 195 195 191 190 186 181 176 172 168 162 156 151 148 149 148 150 152 154 157 156 155 152 148 146 147 146 140 137 131 130 133 132 134 131 131 137 137 134 134 134 134 135 134
72 83 73 92 162 200 181 165 163 163 239 230 236 154 154 243 263 187 268 81 117 80 350 251 240 84 189 202 303 219 165 167 167 166 167 171 179 184 189 195 196 199 202 204 206 206 203 203 203 201 199 198 201 201 198 198 196 195 193 189 186 183 180 175 169 163 159 157 154 152 154 157 160 162 163 158 152 150 150 148 147 146 137 136 137 136 137 132 135 142 139 137 137 136 137 139 139
57 78 104 153 174 204 184 176 191 170 197 204 201 177 162 193 206 184 62 47 58 38 313 306 301 264 241 274 300 163 163 166 167 166 165 168 175 180 185 194 197 201 204 207 208 209 208 206 207 206 204 202 204 204 201 200 200 199 197 196 193 192 190 186 181 176 172 167 163 159 157 159 162 165 167 164 156 153 154 153 153 154 148 143 141 140 139 135 140 145 143 141 138 137 139 140 143
86 107 110 209 196 204 192 172 183 173 170 172 174 172 177 195 168 146 178 317 35 149 272 339 322 267 294 308 173 157 162 165 169 169 169 171 177 182 186 193 199 203 206 209 211 212 212 211 211 210 208 207 207 207 206 204 202 202 202 201 200 199 197 195 190 187 183 179 173 168 165 163 165 167 170 170 162 158 160 160 159 162 160 149 146 147 143 142 149 151 149 145 140 139 138 141 146
140 117 111 239 213 212 213 177 184 205 159 144 159 165 185 228 160 155 178 174 184 201 226 233 259 247 260 296 156 157 162 165 172 175 176 180 183 188 190 195 201 205 208 212 214 215 216 215 214 214 213 212 212 210 210 209 205 205 205 204 205 204 202 200 197 195 192 189 185 178 174 171 171 172 172 175 171 167 167 168 168 171 171 161 159 161 156 156 159 157 154 149 144 143 140 142 148
137 122 175 233 205 167 206 192 200 204 164 143 145 131 159 234 180 154 144 137 259 243 223 199 209 208 183 196 168 162 165 167 176 181 183 187 190 196 199 202 206 207 210 214 217 218 220 219 217 215 215 215 215 213 212 213 210 207 208 208 208 207 205 205 202 201 199 197 194 188 185 181 178 177 177 180 179 176 174 176 178 180 180 172 172 172 166 166 165 163 160 155 150 147 145 147 152
108 157 194 207 169 100 210 211 203 170 139 125 130 147 175 175 140 151 151 168 234 237 223 209 204 183 166 172 171 168 170 173 180 186 190 193 196 201 205 208 209 210 212 215 218 220 223 224 222 217 216 217 216 215 214 216 213 210 210 211 212 210 208 208 207 205 204 203 202 197 193 190 188 185 184 185 186 185 184 184 184 187 188 179 179 180 173 172 173 170 166 160 156 156 154 154 158
127 277 278 212 211 80 329 286 241 150 130 142 155 170 146 121 214 178 174 208 221 219 237 224 198 166 160 159 162 170 176 183 189 192 193 195 198 203 205 208 209 210 213 216 219 222 224 226 227 222 218 217 218 217 216 217 216 214 213 213 215 215 211 211 211 209 208 207 208 206 202 199 196 193 191 192 193 193 192 192 190 192 194 185 182 185 181 178 179 175 171 167 162 162 162 161 163
100 174 307 212 212 354 318 315 241 152 146 178 168 131 126 158 194 92 214 235 232 243 298 226 164 147 150 155 167 179 183 190 196 198 197 198 201 203 205 208 210 212 214 218 220 223 225 226 228 227 222 219 219 218 218 219 218 217 216 215 216 219 217 213 214 214 213 212 212 212 211 208 205 202 199 198 198 199 200 200 197 197 199 192 187 190 189 183 182 181 178 173 168 167 167 166 167
88 163 202 124 89 316 321 46 75 106 132 161 116 114 200 197 162 112 240 248 258 271 41 100 137 139 155 167 179 186 188 197 202 204 204 205 206 205 208 211 212 214 216 218 219 222 226 227 227 229 227 223 221 220 220 221 220 217 218 218 217 221 222 219 217 217 217 217 216 216 216 214 212 209 206 204 203 203 204 205 203 202 203 199 193 193 195 190 186 185 183 179 174 172 170 170 171
166 139 146 105 6 322 340 70 45 47 73 58 115 91 311 217 148 269 249 257 285 347 88 109 135 148 176 178 185 189 192 201 203 206 207 209 208 208 212 213 213 216 218 219 219 220 224 227 227 228 230 228 224 222 222 222 221 219 218 221 220 220 224 225 221 219 220 220 220 219 219 220 219 217 213 209 207 206 207 207 207 205 205 205 201 196 197 197 194 190 189 186 180 176 174 174 175
137 112 102 70 4 324 12 82 15 10 45 36 145 165 306 285 336 262 261 310 313 106 101 134 154 173 193 188 194 194 199 205 203 202 204 208 209 212 214 214 217 218 219 221 221 221 222 225 227 227 229 230 228 225 224 225 225 222 219 221 223 223 223 226 226 223 222 222 223 222 221 222 223 222 219 215 212 210 209 208 208 208 208 207 206 203 200 201 200 197 194 192 187 182 177 176 178
109 118 95 13 352 351 27 72 5 3 86 33 129 149 307 346 257 233 263 329 319 141 134 167 178 200 204 199 205 201 212 212 204 202 202 206 209 212 213 214 217 218 219 221 221 221 222 224 227 227 228 229 230 227 226 227 229 229 224 222 224 226 224 224 228 229 227 225 225 225 224 224 224 224 224 221 217 214 213 212 210 210 211 210 210 209 206 204 204 202 199 196 192 186 181 178 179
110 108 108 347 357 9 357 31 330 358 100 335 86 77 296 240 232 243 275 342 41 126 183 215 212 229 225 219 221 214 223 216 208 213 213 213 213 213 215 217 217 217 221 222 221 223 223 224 225 227 226 227 228 228 228 227 229 230 229 226 226 229 229 227 228 231 233 230 228 227 227 227 225 226 226 224 222 219 216 214 213 213 213 213 212 211 209 207 206 203 200 196 192 188 184 181 180
124 62 104 24 7 348 322 346 322 71 87 325 85 203 279 252 253 264 303 353 49 133 234 243 238 243 248 241 236 235 231 217 216 221 221 221 219 218 221 223 221 221 224 223 223 224 224 224 224 226 225 225 226 227 228 228 229 231 232 232 229 230 231 230 230 232 235 235 233 231 230 231 230 229 228 227 225 223 221 218 216 215 215 217 215 213 212 209 208 205 201 196 191 189 186 183 182
86 52 67 60 114 261 302 332 349 133 2 354 100 181 271 265 276 291 314 338 140 232 256 256 257 253 248 243 240 246 239 227 229 230 229 228 226 225 227 228 225 225 227 225 226 226 225 225 223 224 224 224 226 226 226 225 226 227 230 232 231 232 232 231 231 233 237 239 239 236 233 234 234 232 230 229 229 227 223 221 221 218 216 217 216 215 214 212 211 208 205 198 191 188 188 184 183
44 98 310 345 170 254 309 334 43 153 268 26 96 204 273 268 275 291 328 32 160 235 266 270 269 262 250 245 240 247 252 243 242 242 238 235 231 230 230 231 230 229 229 229 230 228 228 228 225 224 224 223 225 227 227 226 225 225 227 229 228 228 229 231 232 232 234 236 237 237 235 235 236 235 232 229 229 230 229 225 228 228 222 218 217 215 214 214 213 210 208 205 197 190 188 186 184
6 105 196 269 176 259 313 337 340 26 192 10 75 216 272 282 272 285 339 54 102 249 273 277 269 264 254 241 237 243 259 258 250 245 242 239 236 234 233 233 233 233 232 232 232 231 230 230 228 228 227 225 225 226 228 228 228 230 233 234 231 229 230 236 238 235 235 234 233 233 233 234 234 235 234 231 228 228 230 230 231 231 226 222 219 215 213 212 211 207 203 204 204 197 191 188 184
304 54 124 233 194 214 282 275 322 23 102 266 20 247 250 270 280 289 309 49 49 279 272 280 274 270 259 243 244 241 246 256 252 245 242 240 239 238 237 237 237 236 236 236 235 234 235 234 232 232 232 230 227 226 226 226 227 229 232 233 232 234 236 236 234 235 237 237 236 236 237 235 231 230 231 234 233 230 231 232 231 228 223 219 216 214 212 210 208 206 200 198 203 202 196 192 189
184 167 154 223 227 217 250 247 269 20 72 204 340 285 264 278 287 289 283 193 273 268 266 282 281 276 272 262 254 246 245 250 249 247 245 245 244 243 242 241 240 239 238 238 237 237 237 236 235 235 235 233 231 229 226 226 227 227 228 228 228 232 235 232 228 230 231 232 238 241 239 235 231 229 227 229 232 234 233 232 231 229 225 222 219 215 213 211 208 206 204 198 197 201 201 196 192
167 175 148 154 187 230 244 254 272 348 107 227 245 250 273 286 289 289 280 172 222 267 273 277 272 272 271 263 253 250 249 249 252 254 254 253 251 251 249 247 245 243 242 240 238 236 235 236 235 235 236 235 231 228 225 225 225 225 227 229 231 233 235 234 234 235 230 229 233 235 238 239 236 233 230 227 227 233 234 229 227 226 224 222 218 216 215 214 212 208 208 204 197 194 196 196 193
135 130 115 144 172 242 254 268 304 316 143 244 247 262 278 276 277 279 277 281 270 270 270 265 261 260 258 255 256 251 244 253 265 268 261 257 256 255 253 252 248 245 243 240 238 236 236 234 233 234 235 233 228 224 222 221 221 221 223 226 230 232 233 235 238 241 238 234 229 228 236 239 234 232 232 230 229 233 235 231 228 226 224 223 221 220 219 216 213 210 207 205 200 193 190 193 193
101 133 130 127 185 234 264 259 315 339 177 256 11 335 279 267 271 273 275 287 263 250 248 255 256 254 253 251 256 255 255 269 275 269 263 257 255 253 251 249 244 242 242 239 238 238 236 233 232 234 234 230 228 226 222 220 220 220 220 223 227 229 231 232 235 239 240 240 238 239 242 239 234 233 233 235 234 232 232 232 233 232 230 227 222 218 217 214 211 210 207 204 201 197 195 194 191
89 116 130 142 207 244 286 297 330 355 337 270 354 345 281 269 269 268 265 258 250 243 235 243 251 256 256 247 251 264 275 280 271 265 265 257 253 250 247 245 242 242 243 241 239 238 234 232 233 234 233 231 230 227 224 224 224 223 223 225 227 228 231 233 235 238 238 239 242 244 244 243 244 240 237 239 239 238 237 234 234 235 234 228 221 216 214 213 211 210 210 207 202 200 200 198 196
94 109 132 168 241 164 229 293 332 0 53 278 326 316 285 286 290 279 270 262 267 269 254 249 245 247 255 256 258 265 270 276 282 279 264 260 259 252 244 243 242 241 240 240 239 236 234 234 234 233 232 232 231 229 227 227 227 226 226 227 229 230 232 234 235 236 237 237 237 236 234 237 242 242 241 242 241 241 243 240 237 239 237 229 222 218 215 215 215 215 214 211 206 201 199 200 199
90 141 139 159 197 176 192 276 344 357 21 29 15 332 295 311 325 290 294 329 299 297 308 281 255 245 261 276 271 257 257 270 279 277 268 263 263 257 249 247 245 241 240 240 239 237 237 237 236 234 232 233 232 230 229 227 225 224 223 224 226 228 230 230 230 232 234 235 236 235 234 234 236 237 239 240 240 240 240 239 240 242 239 233 227 224 222 221 222 222 218 214 211 207 202 201 199
250 208 174 172 170 159 147 68 62 35 2 357 24 1 291 315 316 272 302 342 308 317 325 282 271 276 274 272 269 261 258 260 260 267 273 270 265 263 260 254 248 246 245 245 243 242 242 241 239 236 235 235 234 232 229 226 224 222 220 217 218 220 222 223 226 229 231 234 237 238 239 239 239 239 238 239 242 241 237 235 237 237 233 228 226 225 224 223 223 224 220 214 213 213 207 202 200
185 222 170 147 129 124 126 109 87 92 246 325 43 122 265 310 296 269 313 334 307 311 297 276 289 302 281 266 271 272 268 266 266 270 274 273 267 262 260 257 252 254 256 254 249 246 244 243 241 240 239 237 235 233 230 226 223 222 221 221 221 221 222 226 231 234 236 237 239 240 240 240 241 243 244 243 243 243 242 241 240 238 235 232 229 225 224 226 229 227 223 218 216 215 210 207 204
193 217 126 122 118 126 135 108 93 198 233 328 12 108 223 294 270 272 328 331 308 307 294 295 308 300 292 286 281 279 270 269 272 275 278 273 270 268 271 275 268 265 265 256 251 249 246 245 243 242 241 239 236 234 231 228 226 225 225 225 226 226 228 233 236 239 240 241 241 241 241 241 240 241 242 242 242 241 242 243 245 247 246 243 239 234 233 234 233 227 223 221 218 215 213 214 211
226 186 115 117 117 122 119 94 92 339 337 308 319 50 176 269 273 305 348 320 292 292 289 298 305 301 307 307 302 299 283 268 255 259 271 275 283 293 300 314 315 288 271 249 246 248 246 243 241 240 239 238 237 235 233 232 230 230 229 228 229 231 233 237 239 241 241 241 241 241 241 241 241 241 241 241 241 242 243 245 249 249 247 244 239 237 235 233 229 225 222 219 217 217 217 217 216
182 140 97 81 76 81 80 86 102 46 17 246 268 351 158 265 285 314 2 259 258 274 283 283 287 297 305 308 312 313 305 295 268 253 258 272 298 321 333 350 359 343 278 226 226 232 234 233 234 235 237 237 237 236 235 234 233 232 232 231 232 234 236 237 239 240 241 241 242 242 242 242 242 242 243 243 244 245 246 246 246 244 246 250 249 242 235 229 226 224 223 222 219 218 218 218 219
140 112 75 63 38 36 51 55 80 62 324 254 258 307 132 268 283 261 204 219 220 245 294 293 304 319 315 310 310 310 313 312 304 290 277 293 340 12 23 35 44 48 70 175 203 214 220 224 228 230 234 236 236 237 236 236 235 233 234 235 236 238 239 238 237 238 239 240 241 242 244 245 245 246 246 246 245 244 243 244 244 244 245 249 250 247 240 235 232 230 228 226 222 219 220 221 222
103 89 87 81 10 10 25 2 38 93 258 261 270 297 157 217 263 253 243 255 229 209 263 277 299 319 316 310 307 303 303 302 312 318 314 335 18 38 39 50 54 52 69 108 164 203 214 219 224 227 231 235 236 237 237 237 236 236 237 238 240 241 242 240 240 241 241 241 244 245 246 247 247 248 248 247 246 245 243 242 243 247 248 247 247 246 243 240 238 235 232 228 225 223 222 222 222
72 98 101 91 15 13 359 319 355 215 243 264 274 262 204 232 250 259 265 266 237 211 228 239 262 291 300 302 302 302 305 308 314 316 314 325 359 31 35 50 58 55 59 75 131 183 210 218 225 229 232 237 238 239 240 240 239 240 241 241 243 245 244 244 244 245 246 247 248 249 248 249 250 250 250 251 252 251 250 247 244 244 246 249 250 250 248 243 238 234 231 228 226 226 225 224 224
121 135 125 124 118 85 266 268 288 259 258 289 283 249 258 268 261 249 252 256 226 205 224 232 245 266 277 287 296 303 308 310 313 316 311 302 313 5 24 44 51 51 52 48 68 190 227 229 235 240 242 242 243 244 244 245 245 246 246 246 247 247 247 247 248 250 251 252 253 253 253 254 255 256 256 258 259 258 255 253 251 249 248 249 251 253 253 251 245 238 234 231 229 228 227 225 226
161 157 123 139 154 149 205 219 208 240 276 308 296 263 200 210 267 239 236 258 271 243 248 251 253 261 265 279 297 301 301 306 319 320 300 291 317 350 353 357 11 25 32 29 17 333 295 275 268 264 260 255 253 253 252 252 253 252 250 250 249 250 250 251 252 253 254 255 256 257 258 259 260 261 263 264 263 261 258 256 254 253 252 251 251 251 251 251 250 245 239 236 233 232 230 228 228
225 126 102 152 185 138 134 181 174 174 325 304 268 242 215 207 281 275 249 274 285 273 279 269 253 265 281 309 312 297 292 305 325 324 308 308 331 349 350 352 0 14 18 14 7 339 316 297 280 275 272 265 261 260 259 260 259 256 253 253 252 252 252 252 253 254 255 257 259 260 261 263 264 265 265 265 264 262 261 260 258 257 257 255 255 253 251 249 249 249 244 240 237 235 232 231 232
159 124 162 208 170 112 112 199 56 77 238 271 230 251 287 326 296 293 308 292 286 295 304 288 260 277 312 328 306 288 291 306 310 304 301 309 325 340 353 3 14 28 30 22 15 348 321 302 283 276 271 265 262 262 263 264 260 258 257 255 255 253 252 253 254 256 258 260 262 262 263 265 265 266 266 265 265 264 262 261 261 261 260 259 258 257 255 250 248 248 247 244 242 241 238 236 237
119 172 203 186 119 94 109 161 10 41 239 275 287 245 285 333 274 315 352 301 275 276 283 289 290 300 314 305 295 294 299 310 302 293 299 308 322 339 356 21 33 32 27 19 12 357 342 332 314 300 287 277 271 269 266 262 258 258 259 257 258 257 256 256 257 259 261 261 262 262 263 265 265 266 267 266 265 263 262 262 260 261 260 259 260 261 259 254 248 247 247 246 245 243 240 239 238
122 181 172 116 135 154 91 138 164 132 233 279 303 280 265 201 226 302 345 241 248 258 266 278 277 275 287 303 307 304 311 330 328 327 329 320 334 355 15 33 39 33 25 18 10 0 351 342 329 318 307 295 288 284 280 273 268 267 267 264 263 261 260 260 260 261 261 260 262 263 264 265 266 267 267 266 266 264 263 262 260 260 258 258 262 264 261 255 249 247 248 248 246 243 240 240 240
54 106 101 76 131 160 153 151 164 172 198 261 310 322 269 223 215 215 221 226 223 235 254 252 241 247 268 290 285 287 310 327 319 324 321 323 2 29 39 40 39 37 30 23 16 6 356 343 332 323 314 304 296 291 288 286 282 280 277 272 269 267 265 264 263 262 262 262 263 265 266 266 267 267 267 266 267 266 265 264 263 261 256 257 263 264 261 255 249 249 251 252 251 248 245 243 243
101 116 151 164 73 108 153 123 115 141 163 192 280 302 269 246 214 196 213 227 214 209 230 240 242 251 262 264 253 261 309 300 291 307 313 336 18 37 45 42 36 36 30 24 15 1 348 332 321 315 309 302 296 292 289 291 290 283 279 276 275 273 270 268 266 265 264 264 265 266 267 268 268 267 267 267 267 266 266 266 264 261 258 258 262 262 260 258 253 250 251 253 253 251 248 247 245
159 171 185 178 150 123 149 245 271 114 149 169 179 267 266 247 208 202 215 231 231 224 223 234 245 248 255 267 267 256 278 275 274 284 305 338 12 26 32 31 29 27 22 16 2 341 327 316 310 307 302 300 298 294 291 294 293 283 278 278 278 277 273 270 268 266 266 266 266 267 268 268 268 269 268 267 267 267 267 266 264 262 259 258 260 261 260 260 258 255 253 253 253 251 250 249 247